Regional Weather Roundup
Issued by NWS

Home | Current Version | Previous Version | Text Only | Print | Product List | Glossary On
Versions: 1 2 3 4 5 6 7 8 9 10 11 12 13 14 15 16 17 18 19 20 21 22 23 24 25 26 27 28 29 30 31 32 33 34 35 36 37 38 39 40 41 42 43 44 45 46 47 48 49 50
000
ASUS43 KDTX 020910
RWRMI
MICHIGAN HOURLY REGIONAL WEATHER ROUNDUP
NATIONAL WEATHER SERVICE DETROIT/PONTIAC MI
500 AM EDT SUN AUG 02 2015

NOTE: "FAIR" INDICATES FEW OR NO CLOUDS BELOW 12,000 FEET WITH NO
SIGNIFICANT WEATHER AND/OR OBSTRUCTION TO VISIBILITY.

MIZ047>049-052>055-059>063-066>070-074>076-081>083-021000-
SOUTHEAST LOWER MICHIGAN

CITY           SKY/WX    TMP DP  RH WIND       PRES   REMARKS
ADRIAN         CLEAR     61  58  90 W3        29.90F
ALMA           CLEAR     59  56  88 S3        29.86S
ANN ARBOR      CLEAR     57  56  96 CALM      29.89S
BAD AXE        CLEAR     55  51  85 CALM      29.85S
DETROIT CITY   CLEAR     65  54  67 SW6       29.88S
DETROIT        PTCLDY    64  57  78 CALM      29.89S
FLINT          CLEAR     61  53  75 SW3       29.87F
GROSSE ILE     CLEAR     66  57  72 W3        29.87F
HILLSDALE      CLEAR     66  64  90 W3        29.91S
HOWELL         CLEAR     62  56  81 SW5       29.88S

CITY           SKY/WX    TMP DP  RH WIND       PRES   REMARKS
JACKSON        CLEAR     62  57  83 SW5       29.89S
LAMBERTVILLE   CLEAR     67  60  77 SW3       29.90S
LANSING        CLEAR     62  56  80 S3        29.88S
LAPEER         NOT AVBL
MASON          CLEAR     59  54  85 CALM      29.89R
MONROE         CLEAR     60  58  91 CALM      29.88S
MT. CLEMENS    CLEAR     62  54  75 SW5       29.85F
PONTIAC        CLEAR     61  55  81 CALM      29.88S
PORT HOPE        N/A     63  54  72 SW7       29.81F
PORT HURON     CLEAR     52  52 100 CALM      29.87F
TRI CITIES     CLEAR     62  53  72 SW7       29.85F
YPSILANTI      CLEAR     64  56  75 CALM      29.89S
$$
MIZ043>046-050>051-056>058-064>065-071>073-077>080-021000-
SOUTHWEST LOWER MICHIGAN

CITY           SKY/WX    TMP DP  RH WIND       PRES   REMARKS
BATTLE CREEK   CLEAR     65  60  84 SW5       29.89S
BENTON HARBOR  CLEAR     73  66  78 SW12      29.87F
BIG RAPIDS     CLEAR     57  55  94 CALM      29.84S
COLDWATER      CLEAR     63  61  91 SW3       29.90S
HOLLAND        CLEAR     66  62  87 SW3       29.86S
GRAND RAPIDS   CLEAR     65  58  78 S6        29.86S
KALAMAZOO      CLEAR     66  61  84 SW7       29.89R
MARSHALL       CLEAR     63  59  87 CALM      29.89S
MUSKEGON       CLEAR     70  65  84 SW9       29.83F
$$
MIZ016>042-021000-
NORTHERN LOWER MICHIGAN

CITY           SKY/WX    TMP DP  RH WIND       PRES   REMARKS
ALPENA         PTCLDY    60  51  72 SW6       29.78S
BEAVER ISLAND  CLEAR     68  62  81 SW9       29.73S HAZE
BELLAIRE       CLEAR     61  54  78 CALM      29.78F
CADILLAC       CLEAR     55  50  83 CALM      29.83F
CHARLEVOIX     CLEAR     67  56  69 S9        29.78F
FRANKFORT      SUNNY     70  64  81 S6        29.78F
GAYLORD        CLEAR     64  52  64 SW13      29.80F
GRAYLING       CLEAR     54  51  88 CALM      29.82S
HARBOR SPRINGS CLEAR     65  55  68 S5        29.76S
HOUGHTON LAKE  CLEAR     64  56  75 SW8       29.83F
MANISTEE       CLEAR     57  54  88 NE5       29.80F
OSCODA         CLEAR     60  53  76 SW9       29.80S
PELLSTON       CLEAR     68  54  60 SW9       29.75F
TRAVERSE CITY  CLEAR     66  58  75 SW6       29.77S
$$
MIZ007>008-015-021000-
EASTERN UPPER MICHIGAN

CITY           SKY/WX    TMP DP  RH WIND       PRES   REMARKS
KINROSS        PTCLDY    63  61  94 SW5       29.71S
MACKINAC ISLAN   N/A     67  57  71 SW13G20   29.73R
NEWBERRY       CLEAR     62  58  89 SW9       29.70S
S. S. MARIE    PTCLDY    62  59  90 S5        29.69F
$$
MIZ004>006-011>014-085-021000-
CENTRAL UPPER MICHIGAN

CITY           SKY/WX    TMP DP  RH WIND       PRES   REMARKS
MANISTIQUE     CLEAR     64  57  77 SW6       29.70F
ESCANABA       CLEAR     61  54  77 W5        29.70F
MENOMINEE      MOCLDY    66  54  63 W6        29.71F
SAWYER-GWINN   PTCLDY    62  54  73 SW7       29.69F
$$
MIZ001>003-009>011-084-021000-
WESTERN UPPER MICHIGAN

CITY           SKY/WX    TMP DP  RH WIND       PRES   REMARKS
IRON MOUNTAIN  PTCLDY    56  52  86 SE3       29.70F
HOUGHTON       CLOUDY    68  54  60 W10       29.64F
COPPER HARBOR    N/A     63  54  72 N8        29.63F
IRONWOOD       PTCLDY    68  63  83 SW7       29.64F
$$

ABBREVIATIONS USED IN REMARKS
   TC - TEMPERATURE IN CELSIUS
  WCI - WIND CHILL INDEX
   HX - HEAT INDEX
  VSB - VISIBILITY



USA.gov is the U.S. government's official web portal to all federal, state and local government web resources and services.